Location: Newark
(0.0000°N, 0.0000°E)
Time: 14:01:40
(UTC+00:00)

N. Korean satellite - Visible Passes

Search period start: 19 June 2019 00:00
Search period end: 29 June 2019 00:00
Orbit: 455 x 510 km, 97.2° (Epoch: 18 June)

Date Brightness Start Highest point End Pass type
(mag) Time Alt. Az. Time Alt. Az. Time Alt. Az.
19 Jun 8.6 05:14:34 10° NE 05:17:38 28° ESE 05:20:45 10° SSE visible
19 Jun 9.9 18:37:34 10° WSW 18:38:32 11° WSW 18:39:29 10° W visible
20 Jun 9.7 04:51:29 10° E 04:52:41 11° ESE 04:53:54 10° ESE visible
22 Jun 7.1 05:32:20 10° NNE 05:35:49 62° ESE 05:39:24 10° S visible
23 Jun 9.0 05:08:00 10° NE 05:10:51 23° ESE 05:13:44 10° SSE visible
23 Jun 9.6 18:29:54 10° SW 18:31:45 14° WSW 18:33:35 10° WNW visible
26 Jun 7.7 05:25:35 10° NNE 05:29:01 46° E 05:32:32 10° S visible
27 Jun 9.4 05:01:31 10° ENE 05:04:03 18° ESE 05:06:36 10° SSE visible
